Location: Altavilla Irpina
(41.0000°N, 14.7833°E)
Time: 00:53:49
(UTC+00:00)

NOSS 3-1 (C) - Pass Details

Date: 19 May 2025
Orbit: 625 x 1577 km, 63.4° (Epoch: 18 June)

Event Time Altitude Azimuth Distance (km) Brightness Sun altitude
Rises 20:15:42 0° 219° (SW) 2,918 5.9 -18.4°
Reaches altitude 10° 20:17:50 10° 221° (SW) 2,052 5.1 -18.7°
Maximum altitude 20:22:24 74° 306° (NW) 747 3.0 -19.2°
Drops below altitude 10° 20:27:50 10° 32° (NNE) 2,434 5.8 -19.9°
Sets 20:30:35 0° 34° (NE) 3,514 6.7 -20.2°
